www.pogodaiklimat.ru

Погода и климат >> Архив погоды >> Германия >> Leuchtturm Kiel


ПОГОДА в Leuchtturm Kiel

  • Прогноз погоды в Leuchtturm Kiel
  • Монитор погоды в Leuchtturm Kiel
  • Климат города

АРХИВ ПОГОДЫ в Leuchtturm Kiel

Время (UTC), дата Ветер
(напр.,м/с)
 
Видим.   Явления Облачность Т
(С)
Тd
(С)
f
(%)
Тe
(С)
Тes
(С)
Комфортность P
(гПа)
Po
(гПа)
Тmin
(С)
Tmax
(С)
R
(мм)
R24
(мм)
S
(см)
02 15.10 ЮЗ 8 н/о н/о +15.0 +13.6 91 +13 +13 1022.8 1019.7
01 15.10 ЮЗ 8 н/о н/о +15.4 +13.8 90 +13 +13 1023.1 1020.0
03 15.10 ЮЗ 5 н/о н/о +14.6 +13.4 93 +13 +13 1023.5 1020.3
04 15.10 ЮЗ 6 н/о н/о +14.3 +13.2 93 +12 +12 1023.5 1020.3
05 15.10 ЮЗ 5 н/о н/о +14.0 +13.2 95 +12 +12 1023.8 1020.7
06 15.10 ЮЗ 5 н/о н/о +13.7 +13.2 97 +12 +12 1024.0 1020.9 +13.7 +16.0
08 15.10 Ю 6 н/о н/о +13.7 +13.7 100 +11 +11 1023.7 1020.6
07 15.10 ЮЗ 5 н/о н/о +13.7 +13.7 100 +12 +12 1024.0 1020.9
09 15.10 Ю 8 н/о н/о +12.9 +12.6 98 +10 +10 1023.6 1020.4
10 15.10 Ю 5 н/о н/о +13.5 +13.2 98 +11 +11 1023.5 1020.4
11 15.10 Ю 5 н/о н/о +14.7 +13.4 92 +13 +13 1023.2 1020.1
12 15.10 Ю 5 н/о н/о +15.7 +13.1 85 +14 +14 1022.6 1019.5
14 15.10 ЮВ 6 н/о н/о +17.6 +14.5 82 +17 +17 1021.3 1018.2
13 15.10 ЮВ 3 н/о н/о +16.4 +13.5 83 +16 +16 1021.9 1018.8
15 15.10 ЮВ 5 н/о н/о +18.3 +15.0 81 +18 +18 1020.6 1017.6
16 15.10 Ю 6 н/о н/о +18.9 +15.5 81 +20 +20 1020.1 1017.0
17 15.10 Ю 6 н/о н/о +18.9 +14.9 78 +20 +20 1020.1 1017.0
18 15.10 Ю 7 н/о н/о +18.0 +14.8 82 +17 +17 1019.8 1016.7 +12.9 +19.4
20 15.10 Ю 10 н/о н/о +17.2 +13.3 78 +16 +16 1018.9 1015.8
19 15.10 Ю 9 н/о н/о +17.9 +13.9 77 +17 +17 1019.5 1016.4
21 15.10 Ю 9 н/о н/о +17.0 +13.0 77 +16 +16 1018.9 1015.8
22 15.10 ЮЗ 10 н/о н/о +17.2 +12.6 74 +16 +16 1018.7 1015.6
23 15.10 ЮЗ 8 н/о н/о +16.5 +12.6 78 +15 +15 1018.9 1015.8
00 16.10 ЮЗ 8 н/о н/о +16.2 +12.6 79 +15 +15 1018.7 1015.6
02 16.10 ЮЗ 8 н/о н/о +15.4 +12.2 81 +13 +13 1018.1 1015.0
01 16.10 ЮЗ 8 н/о н/о +16.1 +12.4 79 +14 +14 1018.4 1015.3
03 16.10 ЮЗ 8 н/о н/о +15.0 +12.1 83 +13 +13 1018.0 1014.9
04 16.10 ЮЗ 7 н/о н/о +14.7 +12.0 84 +13 +13 1018.2 1015.0
05 16.10 ЮЗ 7 н/о н/о +14.4 +12.0 85 +12 +12 1018.3 1015.2
06 16.10 ЮЗ 8 н/о н/о +14.0 +12.0 88 +11 +11 1018.2 1015.1 +14.0 +18.9
08 16.10 ЮЗ 7 н/о н/о +14.3 +12.6 90 +12 +12 1019.2 1016.1
07 16.10 ЮЗ 7 н/о н/о +14.0 +12.2 89 +12 +12 1018.9 1015.8
09 16.10 ЮЗ 7 н/о н/о +14.1 +12.8 92 +12 +12 1019.7 1016.6
10 16.10 З 6 н/о н/о +14.5 +13.1 91 +13 +13 1020.5 1017.3
11 16.10 З 3 н/о н/о +14.8 +13.3 91 +14 +14 1020.5 1017.4
12 16.10 З 2 н/о н/о +16.0 +12.8 81 +16 +16 1020.3 1017.2
14 16.10 В 4 н/о н/о +14.7 +13.2 91 +13 +13 1019.8 1016.6
13 16.10 С 1 н/о н/о +17.0 +13.9 82 +18 +18 1020.0 1016.9
15 16.10 В 4 н/о н/о +14.5 +13.4 93 +13 +13 1019.7 1016.6
16 16.10 В 5 н/о н/о +14.3 +13.3 94 +13 +13 1019.5 1016.4
17 16.10 ЮВ 4 н/о н/о +15.8 +14.3 91 +15 +15 1019.6 1016.5
18 16.10 ЮВ 5 н/о н/о +16.3 +14.7 90 +15 +15 1019.5 1016.4 +13.9 +18.5
20 16.10 ЮВ 5 н/о н/о +16.1 +14.5 90 +15 +15 1018.6 1015.5
19 16.10 ЮВ 6 н/о н/о +16.7 +15.3 91 +16 +16 1019.0 1015.9
21 16.10 ЮВ 5 н/о н/о +16.4 +14.6 89 +15 +15 1018.5 1015.4
22 16.10 Ю 5 н/о н/о +16.9 +14.8 87 +16 +16 1018.1 1015.0
23 16.10 Ю 6 н/о н/о +16.8 +14.3 85 +16 +16 1017.9 1014.8
00 17.10 Ю 11 н/о н/о +17.7 +13.9 78 +16 +16 1017.5 1014.4
02 17.10 ЮЗ 8 н/о н/о +17.4 +13.4 77 +16 +16 1017.2 1014.1
01 17.10 ЮЗ 9 н/о н/о +17.6 +13.5 77 +16 +16 1017.4 1014.3
03 17.10 ЮЗ 8 н/о н/о +16.8 +13.2 79 +15 +15 1017.0 1014.0
04 17.10 ЮЗ 9 н/о н/о +16.0 +13.3 84 +14 +14 1016.9 1013.8
05 17.10 ЮЗ 7 н/о н/о +15.1 +13.1 88 +13 +13 1016.9 1013.8
06 17.10 ЮЗ 8 н/о н/о +15.6 +12.4 81 +14 +14 1017.0 1013.9 +15.1 +18.0
08 17.10 ЮЗ 10 н/о н/о +14.8 +10.6 76 +12 +12 1017.6 1014.4
07 17.10 ЮЗ 10 н/о н/о +15.3 +11.4 78 +13 +13 1017.4 1014.3
09 17.10 ЮЗ 11
{14}
н/о н/о +14.5 +10.4 76 +12 +12 1017.4 1014.3
10 17.10 ЮЗ 11
{14}
н/о н/о +14.3 +10.6 78 +11 +11 1017.6 1014.5
11 17.10 ЮЗ 12
{15}
н/о н/о +14.6 +10.2 75 +12 +12 1017.4 1014.3
12 17.10 ЮЗ 11
{16}
н/о н/о +14.5 +10.2 75 +12 +12 1017.4 1014.3
14 17.10 ЮЗ 12
{16}
н/о н/о +14.7 +9.3 70 +12 +12 1016.2 1013.1
13 17.10 ЮЗ 12
{16}
н/о н/о +14.5 +10.0 74 +12 +12 1016.9 1013.8
15 17.10 ЮЗ 11
{17}
н/о н/о +14.4 +9.4 72 +12 +12 1016.0 1012.9
16 17.10 ЮЗ 9
{13}
н/о н/о +14.2 +9.8 75 +12 +12 1015.7 1012.6
17 17.10 ЮЗ 9 н/о н/о +13.9 +9.9 77 +11 +11 1015.8 1012.7
18 17.10 ЮЗ 8
{17}
н/о н/о +13.3 +10.1 81 +11 +11 1016.1 1013.0 +13.4 +15.8
20 17.10 ЮЗ 9 н/о н/о +12.7 +10.4 86 +9 +9 1015.9 1012.8
19 17.10 ЮЗ 8 н/о н/о +13.1 +10.4 84 +10 +10 1016.0 1012.9
21 17.10 ЮЗ 9 н/о н/о +12.6 +10.5 87 +9 +9 1015.6 1012.5
22 17.10 ЮЗ 10 н/о н/о +12.4 +10.5 88 +9 +9 1015.5 1012.4
23 17.10 ЮЗ 11
{13}
н/о н/о +12.3 +10.4 88 +8 +8 1015.3 1012.2
00 18.10 ЮЗ 10
{13}
н/о н/о +12.1 +10.3 89 +8 +8 1015.2 1012.1
02 18.10 ЮЗ 9 н/о н/о +11.6 +10.3 92 +8 +8 1015.0 1011.8
01 18.10 ЮЗ 9 н/о н/о +11.9 +10.3 90 +8 +8 1015.1 1011.9
03 18.10 ЮЗ 8
{13}
н/о н/о +11.5 +10.3 92 +8 +8 1014.9 1011.7
04 18.10 ЮЗ 8 н/о н/о +11.3 +10.2 93 +8 +8 1014.8 1011.6
05 18.10 ЮЗ 7 н/о н/о +11.5 +10.4 93 +8 +8 1014.6 1011.5
06 18.10 ЮЗ 6
{13}
н/о н/о +11.2 +10.2 94 +8 +8 1014.7 1011.5 +11.2 +13.9
08 18.10 ЮЗ 5 н/о н/о +11.5 +10.4 93 +9 +9 1015.5 1012.3
07 18.10 ЮЗ 6 н/о н/о +10.9 +10.0 94 +8 +8 1015.2 1012.0
09 18.10 ЮЗ 5 н/о н/о +12.0 +10.8 92 +9 +9 1015.6 1012.4
10 18.10 ЮЗ 3 н/о н/о +13.0 +10.8 86 +12 +12 1015.4 1012.3
11 18.10 З 2 н/о н/о +13.8 +11.2 84 +13 +13 1015.7 1012.5
12 18.10 З 2 н/о н/о +14.2 +10.9 81 +14 +14 1015.2 1012.1
14 18.10 штиль 0 н/о н/о +14.6 +9.6 72 +14 +14 1015.0 1011.9
13 18.10 З 2 н/о н/о +14.5 +10.0 74 +14 +14 1015.1 1012.0
15 18.10 СВ 2 н/о н/о +14.2 +9.7 74 +14 +14 1015.0 1011.8
16 18.10 В 3 н/о н/о +13.7 +10.6 82 +13 +13 1015.0 1011.9
17 18.10 В 4 н/о н/о +13.5 +10.8 84 +12 +12 1014.9 1011.7
18 18.10 В 4 н/о н/о +13.3 +11.2 87 +12 +12 1015.1 1011.9 +10.8 +15.3
20 18.10 ЮВ 4 н/о н/о +13.3 +11.3 88 +12 +12 1015.2 1012.0
19 18.10 В 4 н/о н/о +13.4 +11.0 85 +12 +12 1015.1 1012.0
21 18.10 В 5 н/о н/о +13.2 +11.1 87 +11 +11 1015.2 1012.0
22 18.10 В 5 н/о н/о +13.2 +11.2 88 +11 +11 1015.1 1012.0
23 18.10 В 5 н/о н/о +13.2 +11.1 87 +11 +11 1015.2 1012.0
00 19.10 В 6 н/о н/о +13.1 +10.8 86 +11 +11 1015.1 1011.9
02 19.10 В 7 н/о н/о +12.9 +11.4 91 +10 +10 1014.8 1011.6
01 19.10 В 7 н/о н/о +13.0 +11.2 89 +10 +10 1014.9 1011.8
03 19.10 В 7 н/о н/о +13.1 +11.2 88 +10 +10 1014.7 1011.5
04 19.10 В 8 н/о н/о +13.0 +11.0 88 +10 +10 1014.5 1011.3
05 19.10 В 9 н/о н/о +12.9 +10.8 87 +10 +10 1013.9 1010.8
06 19.10 ЮВ 9 н/о н/о +12.9 +10.9 88 +10 +10 1014.1 1011.0 +12.8 +13.6
08 19.10 ЮВ 9 н/о н/о +12.5 +10.7 89 +9 +9 1014.6 1011.4
07 19.10 ЮВ 9 н/о н/о +12.7 +10.7 88 +9 +9 1014.6 1011.4
09 19.10 В 8 н/о н/о +12.5 +10.8 89 +9 +9 1014.8 1011.6
10 19.10 В 8 н/о н/о +12.8 +11.1 89 +10 +10 1014.4 1011.3
11 19.10 В 8 н/о н/о +12.9 +11.1 89 +10 +10 1014.3 1011.2
12 19.10 В 10 н/о н/о +12.9 +11.2 89 +10 +10 1014.1 1011.0
14 19.10 В 11
{13}
н/о н/о +13.0 +11.5 91 +9 +9 1013.1 1010.0
13 19.10 В 11 н/о н/о +12.8 +11.4 91 +9 +9 1013.5 1010.3
15 19.10 В 11
{13}
н/о н/о +13.3 +11.6 89 +10 +10 1013.1 1010.0
16 19.10 В 12
{13}
н/о н/о +13.4 +11.7 89 +10 +10 1012.7 1009.6
17 19.10 В 11
{14}
н/о н/о +13.4 +11.8 90 +10 +10 1012.8 1009.7
18 19.10 В 11
{14}
н/о н/о +13.4 +12.1 92 +10 +10 1012.4 1009.3 +12.4 +13.5
20 19.10 В 11 н/о н/о +13.6 +11.7 88 +10 +10 1012.3 1009.1
19 19.10 В 11
{13}
н/о н/о +13.5 +12.2 92 +10 +10 1012.3 1009.2
21 19.10 В 10
{13}
н/о н/о +13.3 +11.7 90 +10 +10 1012.3 1009.1
22 19.10 В 10 н/о н/о +13.2 +11.7 91 +10 +10 1011.9 1008.8
23 19.10 ЮВ 10 н/о н/о +13.0 +11.8 92 +10 +10 1011.2 1008.1
00 20.10 ЮВ 9
{13}
н/о н/о +12.8 +11.8 94 +10 +10 1011.2 1008.1
02 20.10 Ю 7 н/о н/о +12.1 +11.5 96 +9 +9 1011.1 1007.9
01 20.10 ЮВ 7 н/о н/о +12.5 +11.6 94 +10 +10 1011.0 1007.9
03 20.10 ЮВ 5 н/о н/о +11.7 +11.3 97 +9 +9 1010.6 1007.5
04 20.10 ЮВ 5 н/о н/о +11.7 +11.7 100 +9 +9 1010.4 1007.3
05 20.10 ЮВ 5 н/о н/о +12.0 +11.7 98 +9 +9 1010.3 1007.2
06 20.10 ЮВ 5 н/о н/о +12.0 +11.4 96 +9 +9 1009.8 1006.7 +11.6 +13.6
08 20.10 ЮВ 6 н/о н/о +12.2 +11.5 95 +9 +9 1010.1 1007.0
07 20.10 ЮВ 5 н/о н/о +12.0 +11.4 96 +9 +9 1010.0 1006.9
09 20.10 В 9 н/о н/о +12.4 +11.7 95 +9 +9 1009.6 1006.5
10 20.10 Ю 6 н/о н/о +13.0 +12.2 95 +10 +10 1010.6 1007.5
11 20.10 Ю 1 н/о н/о +13.9 +12.1 89 +14 +14 1010.8 1007.7
12 20.10 ЮВ 4 н/о н/о +14.0 +12.0 88 +12 +12 1010.9 1007.8
14 20.10 В 12
{13}
н/о н/о +13.4 +12.1 92 +10 +10 1009.0 1005.9
13 20.10 ЮВ 6 н/о н/о +13.7 +11.8 88 +11 +11 1010.2 1007.1
15 20.10 ЮВ 11
{13}
н/о н/о +13.3 +12.0 92 +10 +10 1009.0 1005.9
16 20.10 ЮВ 9 н/о н/о +13.2 +12.3 94 +10 +10 1009.2 1006.1
17 20.10 ЮВ 7 н/о н/о +13.8 +12.2 90 +11 +11 1009.7 1006.6
18 20.10 Ю 6
{13}
н/о н/о +13.7 +12.3 91 +11 +11 1009.9 1006.7 +11.8 +14.2
20 20.10 Ю 8 н/о н/о +13.3 +11.6 89 +10 +10 1010.3 1007.2
19 20.10 Ю 8 н/о н/о +13.4 +11.7 89 +11 +11 1010.1 1007.0
21 20.10 ЮЗ 7 н/о н/о +13.0 +11.4 90 +10 +10 1010.7 1007.6
22 20.10 Ю 5 н/о н/о +12.8 +11.1 89 +11 +11 1010.8 1007.7
23 20.10 Ю 4 н/о н/о +12.5 +10.8 89 +11 +11 1011.0 1007.8
00 21.10 Ю 6 н/о н/о +12.3 +10.7 90 +10 +10 1010.9 1007.8
02 21.10 Ю 6 н/о н/о +12.3 +10.7 90 +10 +10 1010.9 1007.7
01 21.10 Ю 6 н/о н/о +12.2 +10.8 91 +9 +9 1010.9 1007.8
03 21.10 Ю 5 н/о н/о +12.0 +10.5 91 +9 +9 1011.1 1008.0
04 21.10 Ю 6 н/о н/о +11.9 +10.4 91 +9 +9 1011.1 1008.0
05 21.10 Ю 5 н/о н/о +11.8 +10.4 91 +9 +9 1011.4 1008.2
06 21.10 Ю 5 н/о н/о +11.7 +10.6 93 +9 +9 1011.4 1008.3 +11.5 +13.8
08 21.10 Ю 5 н/о н/о +11.5 +10.2 92 +9 +9 1012.1 1008.9
07 21.10 Ю 5 н/о н/о +11.6 +10.4 92 +9 +9 1011.9 1008.8
09 21.10 Ю 6 н/о н/о +11.8 +10.1 89 +9 +9 1012.2 1009.1
10 21.10 Ю 4 н/о н/о +12.0 +10.1 88 +10 +10 1012.1 1008.9
11 21.10 Ю 5 н/о н/о +12.6 +10.2 85 +10 +10 1012.0 1008.9
12 21.10 ЮВ 6 н/о н/о +12.6 +10.2 85 +10 +10 1011.5 1008.3
14 21.10 ЮВ 7 н/о н/о +13.1 +9.9 81 +10 +10 1011.0 1007.9
13 21.10 ЮВ 6 н/о н/о +12.8 +10.6 86 +10 +10 1011.2 1008.1
15 21.10 ЮВ 7 н/о н/о +13.2 +9.5 78 +11 +11 1011.0 1007.9
16 21.10 ЮВ 8 н/о н/о +13.2 +9.6 79 +10 +10 1010.5 1007.4
17 21.10 ЮВ 8 н/о н/о +13.0 +9.7 80 +10 +10 1010.5 1007.4
18 21.10 ЮВ 9 н/о н/о +11.8 +10.3 91 +8 +8 1010.4 1007.2 +11.5 +13.3
20 21.10 Ю 9 н/о н/о +12.0 +11.2 95 +8 +8 1010.0 1006.9
19 21.10 ЮВ 8 н/о н/о +11.7 +10.8 94 +8 +8 1009.9 1006.8
21 21.10 Ю 7 н/о н/о +12.3 +11.6 95 +9 +9 1009.8 1006.6
22 21.10 Ю 5 н/о н/о +12.5 +11.8 95 +10 +10 1009.4 1006.3
23 21.10 Ю 7 н/о н/о +12.7 +11.9 95 +10 +10 1009.3 1006.1
00 22.10 Ю 8 н/о н/о +12.5 +11.6 94 +9 +9 1009.2 1006.1

 

Местоположение метеостанции Leuchtturm Kiel (Германия): широта 54.50 долгота 10.28 высота над уровнем моря 21 м.

В архиве по умолчанию представлена погода в Leuchtturm Kiel за последнюю неделю. Архивные данные за месяц целиком и за предыдущие месяцы, начиная с января 2011 года, Вы можете получить, выбрав интересующий диапазон дат из раскрывающегося списка и нажав кнопку "Ввод!".

Внимание! Время в таблицах - всемирное. Для получения местного времени необходимо прибавить поправку, которая в Leuchtturm Kiel равна 1 ч.

Смотрите также архив погоды в соседних городах и на ближайших метеорологических станциях:

Погода в Kiel-Holtenau (Германия) (16 км)
Погода в Olpenitz (Германия) (25 км)
Погода в Doernick (Германия) (37 км)
Погода в Kegnaes (Дания) (43 км)
Погода в Schleswig (Германия) (47 км)
Погода в Schleswig Airport (Германия) (49 км)
Погода в Westermarkelsdorf (Германия) (51 км)
Погода в Hohn (Германия) (53 км)
Погода в Langoe (Дания) (58 км)
Погода в Taasinge (Дания) (61 км)

Пояснения к столбцам:

Ветер - указаны скорость ветра в м/с - средняя за 10 мин, порывы в срок и между сроками (в фигурных скобках) и направление, откуда дует ветер: С - северный, СВ - северо-восточный, В - восточный, ЮВ - юго-восточный, Ю - южный, ЮЗ - юго-западный, З - западный, СЗ - северо-западный.
Видимость - горизонтальная дальность видимости в метрах или километрах. При видимости от 1 до 10 км при отсутствии осадков обычно наблюдается дымка, при ухудшении видимости до 1 км и менее - туман. В сухую погоду видимость может ухудшаться дымом, пылью или мглою.
Явления - указаны атмосферные явления, наблюдавшиеся в срок или в последний час перед сроком; фигурными скобками обозначены явления, наблюдавшиеся между сроками (за 1-3 часа до срока); квадратными скобками обозначены град или гололедные отложения с указанием их диаметра в мм.
Облачность - указаны через наклонную черту общая и нижняя облачность в баллах и высота нижней границы облаков в метрах; квадратными скобками обозначены формы облаков: Ci - перистые, Cs - перисто-слоистые, Cc - перисто-кучевые, Ac - высококучевые, As - высокослоистые, Sc - слоисто-кучевые, Ns - слоисто-дождевые, Cu - кучевые, Cb - кучево-дождевые. Подробнее классификацию облаков см. в Атласе облаков (PDF).
T - Температура воздуха - температура, измеренная на высоте 2 м над землей.
Td - Температура точки росы - температура, при понижении до которой содержащийся в воздухе водяной пар достигнет насыщения.
f - Относительная влажность воздуха - влажноcть воздуха, измеренная на высоте 2 м над землей.
Te - Эффективная температура - температура, которую ощущает одетый по сезону человек в тени. Характеристика душности погоды. При расчете учитывается влияние влажности воздуха и скорости ветра на теплоощущения человека.
Tes - Эффективная температура на солнце - температура, которую ощущает человек, с поправкой на солнечный нагрев. Характеристика знойности погоды. Зависит от высоты солнца над горизонтом, облачности и скорости ветра. Ночью, в пасмурную погоду, а также при ветре 12 м/с и более поправка равна нулю.
P - Атмосферное давление - приведенное к уровню моря атмосферное давление.
Po - Атмосферное давление - измеренное на уровне метеостанции атмосферное давление.
Tmin - Минимальная температура - минимум температуры воздуха на высоте 2 м над землей.
Tmax - Максимальная температура - максимум температуры воздуха на высоте 2 м над землей.
R - Количество осадков - Количество выпавших осадков за период времени, мм. При наведении курсора мыши на число - период времени, за который выпало указанное количество осадков.
R24 - Количество осадков - Количество выпавших осадков за 24 часа, мм.
S - Снежный покров - Высота снежного покрова, см. При наведении курсора мыши на число - состояние снежного покрова и степень покрытия местности в баллах.